www.pogodaiklimat.ru
ПОГОДА в Балтиморе
Время
и дата
22:53 13.07
23:53 13.07
00:53 14.07
01:53 14.07
02:53 14.07
03:53 14.07
04:53 14.07
05:53 14.07
06:53 14.07
07:53 14.07
08:53 14.07
09:53 14.07
10:53 14.07
11:53 14.07
12:53 14.07
13:53 14.07
14:53 14.07
15:53 14.07
16:53 14.07
17:53 14.07
18:53 14.07
19:53 14.07
20:53 14.07
21:53 14.07
22:53 14.07
23:53 14.07
00:53 15.07
01:53 15.07
02:53 15.07
03:53 15.07
04:53 15.07
05:53 15.07
06:53 15.07
07:53 15.07
08:53 15.07
09:53 15.07
10:53 15.07
11:53 15.07
12:53 15.07
13:53 15.07
14:53 15.07
15:53 15.07
16:53 15.07
17:53 15.07
18:53 15.07
19:53 15.07
20:53 15.07
21:53 15.07
Ветер
(напр.,м/с)
Видим. Явления Облачность Т
(С)
Тd
(С)
f
(%)
Тe
(С)
Тes
(С)
Комфортность P
(гПа)
Po
(гПа)
Тmin
(С)
Tmax
(С)
R
(мм)
R24
(мм)
S
(см)
н/о н/о +28.9 +22.8 70 +38 +38 очень
душно
1018.7 1018.1
н/о н/о +28.3 +23.3 74 +38 +38 очень
душно
1018.9 1018.1
н/о н/о +27.8 +23.3 77 +38 +38 очень
душно
1018.4 1017.4 +27.2 +30.0
н/о н/о +26.7 +23.3 82 +36 +36 очень
душно
1017.9 1017.1
н/о н/о +27.2 +22.8 77 +36 +36 очень
душно
1017.9 1017.1
н/о н/о +27.2 +22.8 77 +36 +36 очень
душно
1017.9 1017.1
н/о н/о +26.7 +22.8 79 +35 +35 очень
душно
1017.7 1016.8
н/о н/о +27.8 +22.8 74 +37 +37 очень
душно
1017.5 1016.8
н/о н/о +28.9 +23.3 72 +39 +39 очень
душно
1017.6 1016.8 +26.1 +28.9
н/о н/о +30.0 +22.8 65 +40 +40 очень
душно
1017.6 1016.8
н/о н/о +32.8 +22.8 56 +43 +43 опасность
перегрева
1017.4 1016.8
н/о н/о +33.3 +21.1 49 +41 +41 опасность
перегрева
1017.3 1016.4
н/о н/о +35.0 +20.6 43 +42 +42 опасность
перегрева
1016.9 1016.1
н/о н/о +36.1 +21.1 42 +43 +43 опасность
перегрева
1016.2 1015.4
н/о н/о +36.1 +20.0 39 +42 +42 опасность
перегрева
1015.6 1014.7 +28.9 +36.7
н/о н/о +33.9 +23.3 54 +44 +44 опасность
перегрева
1015.1 1014.4
н/о н/о +35.6 +23.9 51 +47 +47 опасность
перегрева
1014.5 1013.7
н/о н/о +35.0 +21.1 44 +42 +42 опасность
перегрева
1014.1 1013.4
н/о н/о +35.0 +20.0 42 +41 +41 опасность
перегрева
1014.0 1013.0
н/о н/о +33.9 +21.7 49 +42 +42 опасность
перегрева
1013.9 1013.0
н/о н/о +32.8 +22.2 54 +42 +42 опасность
перегрева
1014.1 1013.4 +32.8 +36.1
н/о н/о +31.7 +22.2 57 +41 +41 опасность
перегрева
1014.1 1013.4
н/о н/о +30.6 +23.3 65 +41 +41 опасность
перегрева
1013.8 1013.0
н/о н/о +30.0 +23.9 70 +41 +41 опасность
перегрева
1013.5 1012.7
н/о н/о +29.4 +24.4 75 +42 +42 опасность
перегрева
1013.6 1013.0
н/о н/о +28.9 +25.0 80 +42 +42 опасность
перегрева
1013.1 1012.4
н/о н/о +28.9 +24.4 77 +41 +41 опасность
перегрева
1012.7 1012.0 +28.9 +32.8
н/о н/о +28.9 +24.4 77 +41 +41 опасность
перегрева
1012.3 1011.4
н/о н/о +28.3 +24.4 79 +40 +40 очень
душно
1012.3 1011.4
н/о н/о +28.3 +24.4 79 +40 +40 очень
душно
1012.6 1011.7
н/о н/о +28.3 +22.8 72 +38 +38 очень
душно
1012.9 1012.0
н/о н/о +28.3 +21.1 65 +36 +36 очень
душно
1013.5 1012.7
н/о н/о +29.4 +20.6 59 +36 +36 очень
душно
1013.6 1012.7 +27.8 +29.4
н/о н/о +31.1 +19.4 50 +37 +37 очень
душно
1013.7 1013.0
н/о н/о +33.9 +20.0 44 +40 +40 очень
душно
1013.7 1013.0
н/о н/о +33.9 +20.0 44 +40 +40 очень
душно
1013.5 1012.7
н/о н/о +35.0 +20.0 42 +41 +41 опасность
перегрева
1013.3 1012.4
н/о н/о +35.6 +20.0 40 +41 +41 опасность
перегрева
1012.6 1012.0
н/о н/о +36.7 +20.0 38 +42 +42 опасность
перегрева
1012.1 1011.4 +29.4 +36.7
н/о н/о +37.2 +20.0 37 +43 +43 опасность
перегрева
1011.7 1011.0
н/о н/о +38.3 +19.4 33 +43 +43 опасность
перегрева
1010.7 1010.0
н/о н/о +37.8 +19.4 34 +43 +43 опасность
перегрева
1009.6 1009.0
н/о н/о +35.0 +21.1 44 +42 +42 опасность
перегрева
1010.3 1009.7
н/о н/о +35.0 +21.7 46 +43 +43 опасность
перегрева
1009.5 1008.6
н/о н/о +33.3 +18.9 43 +38 +38 очень
душно
1009.6 1008.6 +33.3 +38.3
н/о н/о +32.8 +19.4 45 +38 +38 очень
душно
1010.1 1009.3
н/о н/о +31.7 +19.4 48 +37 +37 очень
душно
1010.5 1009.7
н/о н/о +31.7 +18.9 47 +37 +37 очень
душно
1010.2 1009.3
Местоположение метеостанции Inner Harbor: широта 39.2833 долгота -76.6167 высота над уровнем моря 6 м.
В архиве по умолчанию представлена погода в Балтиморе за последние 1-2 суток. Обновление информации о фактической погоде в базе происходит ежечасно! Архивные данные за месяц целиком и за предыдущие месяцы Вы можете получить, выбрав интересующий диапазон дат из раскрывающегося списка и нажав кнопку "Ввод!".
Внимание! Архив погоды МЕТАР в базе сайта по станциям, не включенным в климатический монитор, хранится не более 60 дней. Нет смысла пытаться выбрать более раннюю дату.
*Определитесь, кто Вы:
Внимание! Время в таблицах - местное (без учета летнего времени). Для получения всемирного времени необходимо вычесть поправку, которая равна -5 ч.
Смотрите также архив погоды в соседних городах и на ближайших метеорологических станциях:
Партнеры нашего сайта:      
Пояснения к столбцам:
  • Ветер - указаны скорость ветра в м/с - средняя за 10 мин, порывы в срок и между сроками (в фигурных скобках) и направление, откуда дует ветер: С - северный,
  • СВ - северо-восточный, В - восточный, ЮВ - юго-восточный, Ю - южный, ЮЗ - юго-западный, З - западный, СЗ - северо-западный.
  • Видимость - горизонтальная дальность видимости в метрах или километрах. При видимости от 1 до 10 км при отсутствии осадков обычно наблюдается дымка, при ухудшении видимости до 1 км и менее - туман. В сухую погоду видимость может ухудшаться дымом, пылью или мглою.
  • Явления - указаны атмосферные явления, наблюдавшиеся в срок или в последний час перед сроком; фигурными скобками обозначены явления, наблюдавшиеся между сроками (за 1-3 часа до срока); квадратными скобками обозначены град или гололедные отложения с указанием их диаметра в мм.
  • Облачность - указаны через наклонную черту общая и нижняя облачность в баллах и высота нижней границы облаков в метрах; квадратными скобками обозначены формы облаков: Ci - перистые, Cs - перисто-слоистые, Cc - перисто-кучевые, Ac - высококучевые, As - высокослоистые, Sc - слоисто-кучевые, Ns - слоисто-дождевые, Cu - кучевые, Cb - кучево-дождевые. Подробнее классификацию облаков см. в Атласе облаков (PDF).
  • T - Температура воздуха - температура, измеренная на высоте 2 м над землей.
  • Td - Температура точки росы - температура, при понижении до которой содержащийся в воздухе водяной пар достигнет насыщения.
  • f - Относительная влажность воздуха - влажноcть воздуха, измеренная на высоте 2 м над землей.
  • Te - Эффективная температура - температура, которую ощущает одетый по сезону человек в тени. Характеристика душности погоды. При расчете учитывается влияние влажности воздуха и скорости ветра на теплоощущения человека.
  • Tes - Эффективная температура на солнце - температура, которую ощущает человек, с поправкой на солнечный нагрев. Характеристика знойности погоды. Зависит от высоты солнца над горизонтом, облачности и скорости ветра. Ночью, в пасмурную погоду, а также при ветре 12 м/с и более поправка равна нулю.
  • P - Атмосферное давление - приведенное к уровню моря атмосферное давление.
  • Po - Атмосферное давление - измеренное на уровне метеостанции атмосферное давление.
  • Tmin - Минимальная температура - минимум температуры воздуха на высоте 2 м над землей.
  • Tmax - Максимальная температура - максимум температуры воздуха на высоте 2 м над землей.
  • R - Количество осадков - Количество выпавших осадков за период времени, мм. При наведении курсора мыши на число - период времени, за который выпало указанное количество осадков.
  • R24 - Количество осадков - Количество выпавших осадков за 24 часа, мм.
  • S - Снежный покров - Высота снежного покрова, см. При наведении курсора мыши на число - состояние снежного покрова и степень покрытия местности в баллах.